Simultaneous Nadir Overpasses (SNOs) Predictions

Prediction of SNOs between GOES-16 and NOAA-19 Satellite Orbit:

Table of predicted SNOs for the next 14.0 days since TLE Epoch: 11/19/2022
Index Date Time (GOES-16) GOES-16 Lat,Lon NOAA-19 Lat,Lon Distance(km) Time Diff (sec)
1 11/21/2022 13:22:51 -0.06, -75.21 0.58, -77.95 312.47 80
2 11/22/2022 13:08:17 -0.05, -75.22 -0.09, -75.05 19.48 80
3 11/23/2022 12:56:22 -0.05, -75.22 -0.76, -72.14 351.45 80
4 11/26/2022 01:16:57 0.04, -75.21 -0.40, -77.02 206.54 80
5 11/27/2022 01:07:43 0.03, -75.22 0.27, -74.12 125.62 80
6 11/28/2022 00:55:48 0.03, -75.23 0.94, -71.21 457.83 80
7 11/29/2022 13:27:59 -0.02, -75.26 0.80, -78.93 418.30 80
8 11/30/2022 13:16:04 -0.02, -75.27 0.18, -76.02 85.57 80
9 12/01/2022 13:01:29 -0.02, -75.29 -0.50, -73.11 247.52 80
